Gure Amuitz — EASO — position and weather

sailwx.info

Track history (hours):
 
Tides and Currents Weather Stations Pressure Air Temp Water Temp Dewpoint Dewpoint Depression Visibility Wind Speed Wind Dir Waves Ship Positions

Gure Amuitz

Last reported at 2014-Jul-27 18:24 UTC. Time now 2014-Jul-30 15:09 UTC.
Position N 46°02' W 003°14'.

Length 28 m.

Type: Fishing. MMSI: 224010590.

Date/timePositionNaut miles runAvg speedWind from/ knotsBaromVisibWave heightAir tempDewpointWater temp
2014-Jul-27 18:24N 46°02' W 003°14'9 9.3
2014-Jul-27 17:28N 45°60' W 003°02'9 9.3
2014-Jul-27 16:33N 45°57' W 002°51'20 8.9
2014-Jul-27 14:22N 45°50' W 002°25'16 8.8
2014-Jul-27 12:33N 45°44' W 002°03'19 3.5
2014-Jul-27 07:04N 45°35' W 001°40'8 2.9
2014-Jul-27 04:27N 45°42' W 001°39'4 1.1
2014-Jul-27 01:03N 45°39' W 001°37'7 9.0
2014-Jul-27 00:19N 45°32' W 001°35'129 6.5
2014-Jul-26 04:23N 43°23' W 001°47'0 0.0
2014-Jul-26 03:19N 43°23' W 001°47'0 0.0
2014-Jul-26 01:29N 43°23' W 001°47'0 0.0
2014-Jul-26 00:29N 43°23' W 001°47'0 0.0
2014-Jul-25 21:31N 43°23' W 001°47'0 0.0
2014-Jul-25 20:25N 43°23' W 001°47'0 0.0
2014-Jul-25 18:32N 43°23' W 001°47'0 0.0
2014-Jul-25 17:28N 43°23' W 001°47'0 0.0
2014-Jul-25 15:34N 43°23' W 001°47'0 0.0
2014-Jul-25 14:33N 43°23' W 001°47'0 0.0
2014-Jul-25 13:33N 43°23' W 001°47'0 0.0
2014-Jul-25 12:32N 43°23' W 001°47'0 0.0
2014-Jul-25 11:27N 43°23' W 001°47'0 0.0
2014-Jul-25 10:31N 43°23' W 001°47'0 0.0
2014-Jul-25 09:26N 43°23' W 001°47'0 0.0
2014-Jul-25 08:21N 43°23' W 001°47'0 0.0
2014-Jul-25 04:29N 43°23' W 001°47'0 0.0
2014-Jul-25 00:33N 43°23' W 001°47'0 0.0
2014-Jul-24 23:23N 43°23' W 001°47'0 0.0
2014-Jul-24 19:19N 43°23' W 001°47'0 0.0
2014-Jul-24 18:31N 43°23' W 001°47'0 0.0
2014-Jul-24 15:11N 43°23' W 001°47'0 0.0
2014-Jul-24 14:24N 43°23' W 001°47'0 0.0
2014-Jul-24 13:32N 43°23' W 001°47'0 0.0
2014-Jul-24 12:31N 43°23' W 001°47'0 0.0
2014-Jul-24 10:10N 43°23' W 001°47'0 0.0
2014-Jul-24 09:31N 43°23' W 001°47'0 0.0
2014-Jul-24 08:32N 43°23' W 001°47'0 0.0
2014-Jul-24 07:33N 43°23' W 001°47'0 0.0
2014-Jul-24 06:16N 43°23' W 001°47'0 0.0
2014-Jul-24 04:15N 43°23' W 001°47'0 0.0
2014-Jul-24 00:33N 43°23' W 001°47'0 0.0
2014-Jul-23 23:22N 43°23' W 001°47'0 0.0
2014-Jul-23 22:24N 43°23' W 001°47'0 0.0
2014-Jul-23 21:32N 43°23' W 001°47'0 0.0
2014-Jul-23 20:32N 43°23' W 001°47'0 0.0
2014-Jul-23 19:33N 43°23' W 001°47'0 0.0
2014-Jul-23 18:30N 43°23' W 001°47'0 0.0
2014-Jul-23 17:32N 43°23' W 001°47'0 0.0
2014-Jul-23 16:33N 43°23' W 001°47'0 0.0
2014-Jul-23 15:28N 43°23' W 001°47'0 0.0
2014-Jul-23 14:30N 43°23' W 001°47'0 0.0
2014-Jul-23 13:31N 43°23' W 001°47'0 0.0
2014-Jul-23 12:33N 43°23' W 001°47'0 0.0
2014-Jul-23 11:34N 43°23' W 001°47'0 0.0
2014-Jul-23 10:28N 43°23' W 001°47'0 0.0
2014-Jul-23 09:32N 43°23' W 001°47'0 0.0
2014-Jul-23 08:29N 43°23' W 001°47'0 0.0
2014-Jul-23 07:33N 43°23' W 001°47'0 0.0
2014-Jul-23 06:04N 43°23' W 001°47'0 0.0
2014-Jul-23 05:33N 43°23' W 001°47'142 6.7
2014-Jul-22 08:16N 43°41' W 005°02'13 6.7
2014-Jul-22 06:18N 43°43' W 005°20'5 6.7
2014-Jul-22 05:30N 43°43' W 005°27'14 6.5
2014-Jul-22 03:20N 43°45' W 005°47'2 1.0
2014-Jul-22 01:30N 43°45' W 005°44'9 0.9
2014-Jul-21 16:29N 43°36' W 005°41'3 3.1
2014-Jul-21 15:33N 43°33' W 005°42'0 0.0
2014-Jul-21 14:29N 43°33' W 005°42'0 0.0
2014-Jul-21 13:33N 43°33' W 005°42'0 0.0
2014-Jul-21 12:33N 43°33' W 005°42'0 0.0
2014-Jul-21 11:32N 43°33' W 005°42'0 0.0
2014-Jul-21 10:33N 43°33' W 005°42'0 0.0
2014-Jul-21 09:33N 43°33' W 005°42'2 0.2
2014-Jul-20 19:33N 43°35' W 005°40'2 2.2
2014-Jul-20 18:33N 43°33' W 005°42'0 0.0
2014-Jul-20 17:33N 43°33' W 005°42'0 0.0
2014-Jul-20 16:33N 43°33' W 005°42'0 0.0
2014-Jul-20 15:33N 43°33' W 005°42'0 0.0
2014-Jul-20 14:32N 43°33' W 005°42'0 0.0
2014-Jul-20 13:31N 43°33' W 005°42'0 0.0
2014-Jul-20 12:32N 43°33' W 005°42'0 0.0
2014-Jul-20 11:33N 43°33' W 005°42'0 0.0
2014-Jul-20 10:33N 43°33' W 005°42'0 0.0
2014-Jul-20 09:33N 43°33' W 005°42'0 0.0
2014-Jul-20 08:33N 43°33' W 005°42'0 0.0
2014-Jul-20 07:33N 43°33' W 005°42'0 0.0
2014-Jul-20 06:32N 43°33' W 005°42'0 0.0
2014-Jul-20 05:33N 43°33' W 005°42'0 0.0
2014-Jul-20 04:33N 43°33' W 005°42'0 0.0
2014-Jul-20 03:33N 43°33' W 005°42'3 2.9
2014-Jul-20 02:29N 43°36' W 005°40'7 6.2
2014-Jul-20 01:20N 43°43' W 005°41'0 0.4
2014-Jul-20 00:27N 43°43' W 005°41'0 0.4
2014-Jul-19 23:28N 43°43' W 005°42'  
Track history (hours):
 
Tides and Currents Weather Stations Pressure Air Temp Water Temp Dewpoint Dewpoint Depression Visibility Wind Speed Wind Dir Waves Ship Positions

Gure Amuitz

Last reported at 2014-Jul-27 18:24 UTC. Time now 2014-Jul-30 15:09 UTC.
Position N 46°02' W 003°14'.

Length 28 m.

Type: Fishing. MMSI: 224010590.

Date/timePositionNaut miles runAvg speedWind from/ knotsBaromVisibWave heightAir tempDewpointWater temp
2014-Jul-27 18:24N 46°02' W 003°14'9 9.3
2014-Jul-27 17:28N 45°60' W 003°02'9 9.3
2014-Jul-27 16:33N 45°57' W 002°51'20 8.9
2014-Jul-27 14:22N 45°50' W 002°25'16 8.8
2014-Jul-27 12:33N 45°44' W 002°03'19 3.5
2014-Jul-27 07:04N 45°35' W 001°40'8 2.9
2014-Jul-27 04:27N 45°42' W 001°39'4 1.1
2014-Jul-27 01:03N 45°39' W 001°37'7 9.0
2014-Jul-27 00:19N 45°32' W 001°35'129 6.5
2014-Jul-26 04:23N 43°23' W 001°47'0 0.0
2014-Jul-26 03:19N 43°23' W 001°47'0 0.0
2014-Jul-26 01:29N 43°23' W 001°47'0 0.0
2014-Jul-26 00:29N 43°23' W 001°47'0 0.0
2014-Jul-25 21:31N 43°23' W 001°47'0 0.0
2014-Jul-25 20:25N 43°23' W 001°47'0 0.0
2014-Jul-25 18:32N 43°23' W 001°47'0 0.0
2014-Jul-25 17:28N 43°23' W 001°47'0 0.0
2014-Jul-25 15:34N 43°23' W 001°47'0 0.0
2014-Jul-25 14:33N 43°23' W 001°47'0 0.0
2014-Jul-25 13:33N 43°23' W 001°47'0 0.0
2014-Jul-25 12:32N 43°23' W 001°47'0 0.0
2014-Jul-25 11:27N 43°23' W 001°47'0 0.0
2014-Jul-25 10:31N 43°23' W 001°47'0 0.0
2014-Jul-25 09:26N 43°23' W 001°47'0 0.0
2014-Jul-25 08:21N 43°23' W 001°47'0 0.0
2014-Jul-25 04:29N 43°23' W 001°47'0 0.0
2014-Jul-25 00:33N 43°23' W 001°47'0 0.0
2014-Jul-24 23:23N 43°23' W 001°47'0 0.0
2014-Jul-24 19:19N 43°23' W 001°47'0 0.0
2014-Jul-24 18:31N 43°23' W 001°47'0 0.0
2014-Jul-24 15:11N 43°23' W 001°47'0 0.0
2014-Jul-24 14:24N 43°23' W 001°47'0 0.0
2014-Jul-24 13:32N 43°23' W 001°47'0 0.0
2014-Jul-24 12:31N 43°23' W 001°47'0 0.0
2014-Jul-24 10:10N 43°23' W 001°47'0 0.0
2014-Jul-24 09:31N 43°23' W 001°47'0 0.0
2014-Jul-24 08:32N 43°23' W 001°47'0 0.0
2014-Jul-24 07:33N 43°23' W 001°47'0 0.0
2014-Jul-24 06:16N 43°23' W 001°47'0 0.0
2014-Jul-24 04:15N 43°23' W 001°47'0 0.0
2014-Jul-24 00:33N 43°23' W 001°47'0 0.0
2014-Jul-23 23:22N 43°23' W 001°47'0 0.0
2014-Jul-23 22:24N 43°23' W 001°47'0 0.0
2014-Jul-23 21:32N 43°23' W 001°47'0 0.0
2014-Jul-23 20:32N 43°23' W 001°47'0 0.0
2014-Jul-23 19:33N 43°23' W 001°47'0 0.0
2014-Jul-23 18:30N 43°23' W 001°47'0 0.0
2014-Jul-23 17:32N 43°23' W 001°47'0 0.0
2014-Jul-23 16:33N 43°23' W 001°47'0 0.0
2014-Jul-23 15:28N 43°23' W 001°47'0 0.0
2014-Jul-23 14:30N 43°23' W 001°47'0 0.0
2014-Jul-23 13:31N 43°23' W 001°47'0 0.0
2014-Jul-23 12:33N 43°23' W 001°47'0 0.0
2014-Jul-23 11:34N 43°23' W 001°47'0 0.0
2014-Jul-23 10:28N 43°23' W 001°47'0 0.0
2014-Jul-23 09:32N 43°23' W 001°47'0 0.0
2014-Jul-23 08:29N 43°23' W 001°47'0 0.0
2014-Jul-23 07:33N 43°23' W 001°47'0 0.0
2014-Jul-23 06:04N 43°23' W 001°47'0 0.0
2014-Jul-23 05:33N 43°23' W 001°47'142 6.7
2014-Jul-22 08:16N 43°41' W 005°02'13 6.7
2014-Jul-22 06:18N 43°43' W 005°20'5 6.7
2014-Jul-22 05:30N 43°43' W 005°27'14 6.5
2014-Jul-22 03:20N 43°45' W 005°47'2 1.0
2014-Jul-22 01:30N 43°45' W 005°44'9 0.9
2014-Jul-21 16:29N 43°36' W 005°41'3 3.1
2014-Jul-21 15:33N 43°33' W 005°42'0 0.0
2014-Jul-21 14:29N 43°33' W 005°42'0 0.0
2014-Jul-21 13:33N 43°33' W 005°42'0 0.0
2014-Jul-21 12:33N 43°33' W 005°42'0 0.0
2014-Jul-21 11:32N 43°33' W 005°42'0 0.0
2014-Jul-21 10:33N 43°33' W 005°42'0 0.0
2014-Jul-21 09:33N 43°33' W 005°42'2 0.2
2014-Jul-20 19:33N 43°35' W 005°40'2 2.2
2014-Jul-20 18:33N 43°33' W 005°42'0 0.0
2014-Jul-20 17:33N 43°33' W 005°42'0 0.0
2014-Jul-20 16:33N 43°33' W 005°42'0 0.0
2014-Jul-20 15:33N 43°33' W 005°42'0 0.0
2014-Jul-20 14:32N 43°33' W 005°42'0 0.0
2014-Jul-20 13:31N 43°33' W 005°42'0 0.0
2014-Jul-20 12:32N 43°33' W 005°42'0 0.0
2014-Jul-20 11:33N 43°33' W 005°42'0 0.0
2014-Jul-20 10:33N 43°33' W 005°42'0 0.0
2014-Jul-20 09:33N 43°33' W 005°42'0 0.0
2014-Jul-20 08:33N 43°33' W 005°42'0 0.0
2014-Jul-20 07:33N 43°33' W 005°42'0 0.0
2014-Jul-20 06:32N 43°33' W 005°42'0 0.0
2014-Jul-20 05:33N 43°33' W 005°42'0 0.0
2014-Jul-20 04:33N 43°33' W 005°42'0 0.0
2014-Jul-20 03:33N 43°33' W 005°42'3 2.9
2014-Jul-20 02:29N 43°36' W 005°40'7 6.2
2014-Jul-20 01:20N 43°43' W 005°41'0 0.4
2014-Jul-20 00:27N 43°43' W 005°41'0 0.4
2014-Jul-19 23:28N 43°43' W 005°42'  

Dump ship's entire track history